Location: Caltech
(34.1382°N, 118.1253°W)
Time: 08:14:27
(UTC-08:00)

Transit 2A - Visible Passes

Search period start: 24 February 2018 00:00
Search period end: 06 March 2018 00:00
Orbit: 594 x 965 km, 66.7° (Epoch: 24 February)

Date Brightness Start Highest point End Pass type
(mag) Time Alt. Az. Time Alt. Az. Time Alt. Az.
24 Feb 7.6 05:13:35 10° N 05:18:19 32° NE 05:22:38 10° ESE visible
24 Feb 6.5 19:47:13 10° SSW 19:52:33 58° SSE 19:52:33 58° SSE visible
24 Feb 9.0 21:32:27 10° W 21:33:13 13° W 21:33:13 13° W visible
25 Feb 8.2 04:39:57 10° N 04:44:03 22° NE 04:47:51 10° ESE visible
25 Feb 6.7 19:13:32 10° S 19:19:31 45° ESE 19:21:44 33° ENE visible
25 Feb 8.1 20:57:26 10° WSW 21:02:24 29° WNW 21:02:24 29° WNW visible
26 Feb 8.6 04:06:37 10° NNE 04:09:43 15° NE 04:12:38 10° E visible
26 Feb 5.9 05:48:22 10° NNW 05:53:29 61° WSW 05:58:04 10° SSE visible
26 Feb 7.2 18:40:09 10° SSE 18:45:36 31° ESE 18:50:58 10° NE visible
26 Feb 7.5 20:22:43 10° SW 20:28:41 41° WNW 20:31:37 26° N visible
27 Feb 8.9 03:34:15 10° NNE 03:35:17 11° NE 03:36:19 10° NE visible
27 Feb 5.9 05:14:15 10° NNW 05:19:28 84° ENE 05:24:09 10° SSE visible
27 Feb 7.6 18:07:10 10° SSE 18:11:43 21° ESE 18:16:15 10° ENE visible
27 Feb 7.0 19:48:16 10° SW 19:54:32 58° WNW 20:00:42 10° NNE visible
28 Feb 6.5 04:40:16 10° NNW 04:45:23 54° ENE 04:49:59 10° SE visible
28 Feb 6.5 19:14:04 10° SSW 19:20:26 82° WNW 19:26:44 10° NNE visible
28 Feb 9.0 21:01:16 10° WNW 21:04:33 14° NW 21:07:47 10° NNW visible
01 Mar 7.3 04:06:26 10° N 04:11:13 35° ENE 04:15:33 10° ESE visible
01 Mar 7.0 05:50:19 10° WNW 05:54:03 21° WSW 05:57:33 10° SSW visible
01 Mar 6.4 18:40:05 10° SSW 18:46:24 71° ESE 18:52:39 10° NNE visible
01 Mar 8.7 20:25:40 10° W 20:30:10 20° NW 20:34:36 10° N visible
02 Mar 8.0 03:35:00 19° NNE 03:36:58 24° NE 03:40:50 10° ESE visible
02 Mar 6.4 05:15:41 10° NW 05:20:13 33° WSW 05:24:22 10° S visible
02 Mar 6.7 18:06:21 10° S 18:12:25 49° ESE 18:18:26 10° NE visible
02 Mar 8.3 19:50:33 10° WSW 19:55:52 27° NW 20:01:05 10° N visible
03 Mar 8.6 03:03:59 15° ENE 03:03:59 15° ENE 03:05:43 10° E visible
03 Mar 5.8 04:44:37 36° NW 04:46:18 54° WSW 04:50:48 10° S visible
03 Mar 7.9 19:15:47 10° SW 19:21:39 38° WNW 19:27:24 10° N visible
04 Mar 6.3 04:13:42 47° SSE 04:13:42 47° SSE 04:16:56 10° SSE visible
04 Mar 7.3 18:41:16 10° SW 18:47:28 53° WNW 18:53:34 10° NNE visible
05 Mar 8.4 03:42:44 10° SE 03:42:44 10° SE 03:42:49 10° SE visible
05 Mar 6.8 18:07:00 10° SSW 18:13:22 76° WNW 18:19:37 10° NNE visible
05 Mar 9.1 19:54:43 10° WNW 19:57:33 13° NW 20:00:19 10° NNW visible
